• In Russia
  • List of Countries
  • For 7 days
  • Water Temperature
  • Weather Map
  • Weather Widgets
  • user-avatar
    Login

    Hourly Weather Asadabad

    Today, 6 April, Monday

    Time Temperature Precipitation Wind Pressure Humidity
    00:00 +14°C° 0.4 mm 1 mps 659 mmHg 68%
    01:00 +13°C° 0.4 mm 1 mps 659 mmHg 68%
    02:00 +13°C° 0.4 mm 1 mps 658 mmHg 68%
    03:00 +13°C° 0.1 mm 1 mps 658 mmHg 65%
    04:00 +13°C° 0.1 mm 2 mps 658 mmHg 62%
    05:00 +12°C° 0.1 mm 2 mps 658 mmHg 60%
    06:00 +14°C° 0 mm 1 mps 658 mmHg 55%
    07:00 +15°C° 0 mm 1 mps 659 mmHg 50%
    08:00 +16°C° 0 mm 1 mps 659 mmHg 45%
    09:00 +18°C° 0 mm 1 mps 659 mmHg 45%
    10:00 +18°C° 0 mm 2 mps 660 mmHg 46%
    11:00 +19°C° 0 mm 2 mps 660 mmHg 46%
    12:00 +20°C° 0.3 mm 2 mps 659 mmHg 45%
    13:00 +20°C° 0.3 mm 2 mps 659 mmHg 45%
    14:00 +21°C° 0.3 mm 2 mps 659 mmHg 44%
    15:00 +20°C° 0.5 mm 2 mps 658 mmHg 46%
    16:00 +20°C° 0.5 mm 2 mps 658 mmHg 47%
    17:00 +20°C° 0.5 mm 2 mps 658 mmHg 49%
    18:00 +19°C° 0.8 mm 1 mps 658 mmHg 57%
    19:00 +18°C° 0.8 mm 1 mps 658 mmHg 64%
    20:00 +16°C° 0.8 mm 1 mps 658 mmHg 72%
    21:00 +16°C° 0.3 mm 1 mps 658 mmHg 71%
    22:00 +15°C° 0.3 mm 2 mps 658 mmHg 69%
    23:00 +15°C° 0.3 mm 2 mps 658 mmHg 68%

    Tomorrow, 7 April, Tuesday

    Time Temperature Precipitation Wind Pressure Humidity
    00:00 +14°C° 0.4 mm 2 mps 658 mmHg 68%
    01:00 +14°C° 0.4 mm 2 mps 657 mmHg 69%
    02:00 +13°C° 0.4 mm 2 mps 656 mmHg 70%
    03:00 +13°C° 0.2 mm 2 mps 656 mmHg 69%
    04:00 +13°C° 0.2 mm 2 mps 656 mmHg 68%
    05:00 +13°C° 0.2 mm 2 mps 656 mmHg 67%
    06:00 +14°C° 0.1 mm 2 mps 656 mmHg 66%
    07:00 +14°C° 0.1 mm 2 mps 656 mmHg 65%
    08:00 +14°C° 0.1 mm 2 mps 657 mmHg 64%
    09:00 +15°C° 0.3 mm 2 mps 657 mmHg 63%
    10:00 +15°C° 0.3 mm 2 mps 657 mmHg 61%
    11:00 +16°C° 0.3 mm 2 mps 657 mmHg 59%
    12:00 +16°C° 0.3 mm 2 mps 657 mmHg 60%
    13:00 +16°C° 0.3 mm 2 mps 657 mmHg 60%
    14:00 +16°C° 0.3 mm 2 mps 656 mmHg 60%
    15:00 +17°C° 0.1 mm 2 mps 656 mmHg 55%
    16:00 +19°C° 0.1 mm 1 mps 656 mmHg 50%
    17:00 +20°C° 0.1 mm 1 mps 656 mmHg 45%
    18:00 +18°C° 0 mm 1 mps 656 mmHg 51%
    19:00 +16°C° 0 mm 1 mps 656 mmHg 58%
    20:00 +14°C° 0 mm 1 mps 656 mmHg 64%
    21:00 +14°C° 0 mm 1 mps 656 mmHg 63%
    22:00 +13°C° 0 mm 1 mps 656 mmHg 62%
    23:00 +13°C° 0 mm 1 mps 656 mmHg 61%

    Day after tomorrow, 8 April, Wednesday

    Time Temperature Precipitation Wind Pressure Humidity
    00:00 +13°C° 0 mm 1 mps 656 mmHg 60%
    01:00 +12°C° 0 mm 1 mps 655 mmHg 59%
    02:00 +12°C° 0 mm 1 mps 655 mmHg 57%
    03:00 +12°C° 0 mm 1 mps 655 mmHg 55%
    04:00 +12°C° 0 mm 1 mps 655 mmHg 53%
    05:00 +12°C° 0 mm 1 mps 655 mmHg 51%
    06:00 +13°C° 0 mm 1 mps 656 mmHg 46%
    07:00 +15°C° 0 mm 1 mps 656 mmHg 42%
    08:00 +18°C° 0 mm 1 mps 657 mmHg 38%
    09:00 +19°C° 0 mm 1 mps 657 mmHg 36%
    10:00 +21°C° 0 mm 1 mps 657 mmHg 34%
    11:00 +21°C° 0 mm 2 mps 658 mmHg 33%
    12:00 +21°C° 0 mm 2 mps 657 mmHg 33%
    13:00 +23°C° 0 mm 2 mps 657 mmHg 33%
    14:00 +22°C° 0 mm 3 mps 657 mmHg 33%
    15:00 +23°C° 0 mm 2 mps 657 mmHg 34%
    16:00 +23°C° 0 mm 2 mps 656 mmHg 34%
    17:00 +23°C° 0 mm 2 mps 656 mmHg 35%
    18:00 +20°C° 0 mm 2 mps 656 mmHg 43%
    19:00 +19°C° 0 mm 1 mps 656 mmHg 51%
    20:00 +16°C° 0 mm 1 mps 656 mmHg 59%
    21:00 +16°C° 0 mm 1 mps 656 mmHg 59%
    22:00 +16°C° 0 mm 1 mps 656 mmHg 60%
    23:00 +15°C° 0 mm 1 mps 656 mmHg 61%

    9 April, Thursday

    Time Temperature Precipitation Wind Pressure Humidity
    00:00 +16°C° 0.1 mm 1 mps 656 mmHg 60%
    01:00 +16°C° 0.1 mm 2 mps 655 mmHg 60%
    02:00 +16°C° 0.1 mm 2 mps 655 mmHg 59%
    03:00 +15°C° 0.8 mm 2 mps 655 mmHg 66%
    04:00 +13°C° 0.8 mm 3 mps 655 mmHg 72%
    05:00 +12°C° 0.8 mm 3 mps 654 mmHg 78%
    06:00 +11°C° 2.2 mm 3 mps 654 mmHg 81%
    07:00 +11°C° 2.2 mm 3 mps 655 mmHg 84%
    08:00 +10°C° 2.2 mm 3 mps 655 mmHg 86%
    09:00 +10°C° 1.2 mm 2 mps 655 mmHg 85%
    10:00 +12°C° 1.2 mm 2 mps 655 mmHg 85%
    11:00 +12°C° 1.2 mm 2 mps 656 mmHg 84%
    12:00 +13°C° 0.5 mm 2 mps 656 mmHg 80%
    13:00 +14°C° 0.5 mm 2 mps 656 mmHg 77%
    14:00 +14°C° 0.5 mm 2 mps 656 mmHg 73%
    15:00 +15°C° 0.1 mm 2 mps 656 mmHg 72%
    16:00 +15°C° 0.1 mm 2 mps 656 mmHg 71%
    17:00 +14°C° 0.1 mm 3 mps 656 mmHg 70%
    18:00 +13°C° 0 mm 3 mps 656 mmHg 71%
    19:00 +12°C° 0 mm 3 mps 656 mmHg 73%
    20:00 +11°C° 0 mm 3 mps 657 mmHg 75%
    21:00 +11°C° 0 mm 3 mps 657 mmHg 69%
    22:00 +11°C° 0 mm 3 mps 657 mmHg 63%
    23:00 +10°C° 0 mm 4 mps 657 mmHg 57%

    10 April, Friday

    Time Temperature Precipitation Wind Pressure Humidity
    00:00 +10°C° 0 mm 3 mps 657 mmHg 53%
    01:00 +10°C° 0 mm 3 mps 657 mmHg 49%
    02:00 +9°C° 0 mm 3 mps 656 mmHg 45%
    03:00 +9°C° 0 mm 3 mps 656 mmHg 43%
    04:00 +9°C° 0 mm 3 mps 656 mmHg 42%
    05:00 +9°C° 0 mm 3 mps 656 mmHg 40%
    06:00 +10°C° 0 mm 3 mps 657 mmHg 38%
    07:00 +12°C° 0 mm 3 mps 657 mmHg 36%
    08:00 +14°C° 0 mm 3 mps 658 mmHg 33%
    09:00 +17°C° 0 mm 2 mps 658 mmHg 30%
    10:00 +18°C° 0 mm 2 mps 659 mmHg 27%
    11:00 +21°C° 0 mm 1 mps 660 mmHg 24%
    12:00 +22°C° 0 mm 1 mps 660 mmHg 24%
    13:00 +22°C° 0 mm 1 mps 660 mmHg 23%
    14:00 +23°C° 0 mm 1 mps 659 mmHg 23%
    15:00 +23°C° 0 mm 1 mps 659 mmHg 23%
    16:00 +23°C° 0 mm 1 mps 659 mmHg 24%
    17:00 +23°C° 0 mm 1 mps 659 mmHg 24%
    18:00 +21°C° 0 mm 1 mps 659 mmHg 31%
    19:00 +19°C° 0 mm 1 mps 659 mmHg 38%
    20:00 +16°C° 0 mm 1 mps 659 mmHg 44%
    21:00 +16°C° 0 mm 2 mps 659 mmHg 43%
    22:00 +16°C° 0 mm 2 mps 659 mmHg 42%
    23:00 +15°C° 0 mm 2 mps 659 mmHg 41%

    11 April, Saturday

    Time Temperature Precipitation Wind Pressure Humidity
    00:00 +14°C° 0 mm 3 mps 659 mmHg 40%
    01:00 +14°C° 0 mm 3 mps 659 mmHg 39%
    02:00 +14°C° 0 mm 3 mps 658 mmHg 38%
    03:00 +13°C° 0 mm 3 mps 658 mmHg 38%
    04:00 +13°C° 0 mm 3 mps 658 mmHg 37%
    05:00 +14°C° 0 mm 2 mps 658 mmHg 37%
    06:00 +16°C° 0 mm 2 mps 659 mmHg 36%
    07:00 +17°C° 0 mm 3 mps 659 mmHg 34%
    08:00 +19°C° 0 mm 3 mps 660 mmHg 33%
    09:00 +20°C° 0 mm 2 mps 660 mmHg 29%
    10:00 +23°C° 0 mm 2 mps 661 mmHg 26%
    11:00 +25°C° 0 mm 1 mps 661 mmHg 22%
    12:00 +25°C° 0 mm 1 mps 661 mmHg 21%
    13:00 +26°C° 0 mm 1 mps 661 mmHg 20%
    14:00 +27°C° 0 mm 1 mps 661 mmHg 19%
    15:00 +26°C° 0 mm 1 mps 661 mmHg 20%
    16:00 +26°C° 0 mm 1 mps 660 mmHg 22%
    17:00 +26°C° 0 mm 1 mps 660 mmHg 24%
    18:00 +24°C° 0 mm 1 mps 660 mmHg 30%
    19:00 +21°C° 0 mm 1 mps 660 mmHg 36%
    20:00 +17°C° 0 mm 0 mps 659 mmHg 43%
    21:00 +19°C° 0 mm 1 mps 660 mmHg 42%
    22:00 +19°C° 0 mm 1 mps 660 mmHg 40%
    23:00 +18°C° 0 mm 2 mps 660 mmHg 39%
    Show more